Liberia, Costa Rica

12:48 PM CST on July 26, 2017 (GMT -0600)
Daniel Oduber Quiros International

Weather History for MRLB - August, 2013

Change the Weather History Date:

Saturday, August 3, 2013

  Actual Average Record
Temperature  
Mean Temperature 83 °F -  
Max Temperature 93 °F 87 °F 96 °F (2012)
Min Temperature 73 °F 74 °F 71 °F (2011)
Cooling Degree Days 18    
Growing Degree Days 33 (Base 50)    
Moisture  
Dew Point 72 °F    
Average Humidity 69    
Maximum Humidity 89    
Minimum Humidity 46    
Precipitation  
Precipitation 0.00 in - - ()
Sea Level Pressure  
Sea Level Pressure 29.86 in    
Wind  
Wind Speed 7 mph ()    
Max Wind Speed 15 mph    
Max Gust Speed -    
Visibility 7.2 miles    
Events Rain , Thunderstorm    
Averages and records for this station are not official NWS values.
T = Trace of Precipitation, MM = Missing Value Source: Averaged Metar Reports

Daily Weather History Graph

Daily Weather History Graph

Search for Another Location

Airport or City:

Trip Planner

Search our weather history database for the weather conditions in past years. The results will help you decide how hot, cold, wet, or windy it might be!

Date:

Astronomy

Aug. 03, 2013 Rise Set
Actual Time 5:31 AM CST 6:05 PM CST
Civil Twilight 5:09 AM CST 6:27 PM CST
Nautical Twilight 4:43 AM CST 6:53 PM CST
Astronomical Twilight 4:17 AM CST 7:19 PM CST
Moon 2:47 AM CST (8/3) 3:41 PM CST (8/3)
Length of Visible Light 13h 18m
Length of Day
12h 33m
Waning Crescent, 9% of the Moon is Illuminated
Aug 3
Waning Crescent
Aug 6
New
Aug 14
First Quarter
Aug 20
Full
Aug 28
Last Quarter

Hourly Weather History & Observations

Time (CST) Temp. Heat Index Dew Point Humidity Pressure Visibility Wind Dir Wind Speed Gust Speed Precip Events Conditions
6:00 AM 76 °F - 71 °F 78% 29.87 in 12 mi ESE 4.6 mph - -   Scattered Clouds
6:00 AM 75.2 °F - 69.8 °F 83% 29.86 in 6.2 mi ESE 4.6 mph - N/A   Mostly Cloudy
7:00 AM 77.0 °F - 71.6 °F 83% 29.88 in 6.2 mi West 5.8 mph - N/A   Mostly Cloudy
8:00 AM 86.0 °F 91.8 °F 71.6 °F 62% 29.89 in 6.2 mi WSW 5.8 mph - N/A   Scattered Clouds
9:00 AM 88 °F - 71 °F 47% 29.91 in 12 mi East 11.5 mph - -   Scattered Clouds
9:00 AM 87.8 °F 92.6 °F 69.8 °F 55% 29.89 in 6.2 mi East 11.5 mph - N/A   Scattered Clouds
10:00 AM 87.8 °F 92.6 °F 69.8 °F 55% 29.90 in 6.2 mi East 10.4 mph - N/A   Scattered Clouds
11:00 AM 89.6 °F 96.2 °F 71.6 °F 55% 29.89 in 6.2 mi East 12.7 mph - N/A   Mostly Cloudy
12:00 PM 90 °F - 72 °F 46% 29.88 in 12 mi East 11.5 mph - -   Scattered Clouds
12:00 PM 89.6 °F 96.2 °F 71.6 °F 55% 29.87 in 6.2 mi East 11.5 mph - N/A   Mostly Cloudy
1:00 PM 91.4 °F 96.8 °F 69.8 °F 49% 29.85 in 6.2 mi East 11.5 mph - N/A   Mostly Cloudy
2:00 PM 91.4 °F 96.8 °F 69.8 °F 49% 29.82 in 6.2 mi ENE 12.7 mph - N/A   Scattered Clouds
3:00 PM 86 °F - 73 °F 56% 29.83 in 12 mi North 15.0 mph - -   Overcast
3:00 PM 86.0 °F 93.4 °F 73.4 °F 66% 29.82 in 6.2 mi North 15.0 mph - N/A   Scattered Clouds
4:00 PM 84.2 °F 90.9 °F 73.4 °F 70% 29.81 in 6.2 mi NNW 10.4 mph - N/A   Scattered Clouds
4:30 PM 82.4 °F 89.5 °F 75.2 °F 79% 29.83 in 6.2 mi North 4.6 mph - N/A Rain , Thunderstorm Thunderstorms and Rain
5:00 PM 78.8 °F - 75.2 °F 89% 29.84 in 6.2 mi South 9.2 mph - N/A Rain , Thunderstorm Thunderstorms and Rain
5:10 PM 78.8 °F - 73.4 °F 83% 29.85 in 6.2 mi SE 5.8 mph - N/A Rain Rain
6:00 PM 79 °F - 74 °F 82% 29.88 in 6 mi SE 9.2 mph - - Rain Light Rain
6:00 PM 78.8 °F - 75.2 °F 89% 29.87 in 6.2 mi SE 9.2 mph - N/A Rain Light Rain
7:00 PM 77.0 °F - 73.4 °F 89% 29.86 in 6.2 mi ENE 4.6 mph - N/A Rain Light Rain
8:00 PM 77.0 °F - 73.4 °F 89% 29.88 in 6.2 mi SSE 3.5 mph - N/A Rain Light Rain